Hamilton, OH

1:28 PM EDT on March 30, 2017 (GMT -0400)
Butler County Regional

Weather History for KHAO - December, 2012

Change the Weather History Date:

Friday, December 7, 2012

  Actual Average (KLUK) Record (KLUK)
Temperature  
Mean Temperature 50 °F -  
Max Temperature 55 °F 45 °F 71 °F (1998)
Min Temperature 46 °F 30 °F 3 °F (1977)
Degree Days  
Heating Degree Days 14    
Moisture  
Dew Point 49 °F    
Average Humidity 96    
Maximum Humidity 100    
Minimum Humidity 88    
Precipitation  
Precipitation 0.52 in - - ()
Sea Level Pressure  
Sea Level Pressure 29.94 in    
Wind  
Wind Speed 1 mph (East)    
Max Wind Speed 8 mph    
Max Gust Speed -    
Visibility 3 miles    
Events Fog , Rain    
Averages and records for this station are not official NWS values.
T = Trace of Precipitation, MM = Missing Value Source: NWS Daily Summary

Daily Weather History Graph

Daily Weather History Graph

Search for Another Location

Airport or City:

Trip Planner

Search our weather history database for the weather conditions in past years. The results will help you decide how hot, cold, wet, or windy it might be!

Date:

Astronomy

Dec. 07, 2012 Rise Set
Actual Time 7:44 AM EST 5:14 PM EST
Civil Twilight 7:15 AM EST 5:44 PM EST
Nautical Twilight 6:41 AM EST 6:18 PM EST
Astronomical Twilight 6:08 AM EST 6:50 PM EST
Moon 1:05 AM EST (12/7) 1:09 PM EST (12/7)
Length of Visible Light 10h 29m
Length of Day
9h 29m
Last Quarter, 39% of the Moon is Illuminated
Dec 7
Last Quarter
Dec 13
New
Dec 20
First Quarter
Dec 28
Full
Jan 4
Last Quarter

Hourly Weather History & Observations

Time (EST) Temp. Dew Point Humidity Pressure Visibility Wind Dir Wind Speed Gust Speed Precip Events Conditions
12:03 AM 46.4 °F 44.6 °F 93% 30.00 in 3.0 mi Calm Calm - 0.04 in Rain Heavy Rain
12:11 AM 46.4 °F 44.6 °F 93% 30.00 in 2.0 mi Calm Calm - 0.07 in Rain Heavy Rain
12:15 AM 46.4 °F 44.6 °F 93% 29.99 in 2.0 mi Calm Calm - 0.09 in Rain Heavy Rain
12:24 AM 46.4 °F 44.6 °F 93% 29.99 in 2.5 mi Calm Calm - 0.11 in Rain Rain
12:31 AM 46.4 °F 44.6 °F 93% 29.99 in 2.5 mi Calm Calm - 0.12 in Rain Light Rain
12:49 AM 46.4 °F 44.6 °F 93% 29.99 in 1.8 mi Calm Calm - 0.14 in Rain Light Rain
12:50 AM 46.0 °F 45.0 °F 96% 30.00 in 1.8 mi Calm Calm - 0.15 in Rain Light Rain
12:57 AM 46.4 °F 44.6 °F 93% 30.00 in 1.2 mi Calm Calm - 0.03 in Rain Heavy Rain
1:16 AM 46.4 °F 44.6 °F 93% 29.99 in 1.8 mi Calm Calm - 0.07 in Rain Rain
1:22 AM 46.4 °F 44.6 °F 93% 29.99 in 2.0 mi Calm Calm - 0.07 in Rain Light Rain
1:39 AM 46.4 °F 44.6 °F 93% 29.99 in 1.8 mi Calm Calm - 0.08 in Rain Light Rain
1:42 AM 46.4 °F 44.6 °F 93% 29.99 in 2.0 mi Calm Calm - 0.08 in Rain Light Rain
1:53 AM 46.0 °F 45.0 °F 96% 29.99 in 2.0 mi Calm Calm - 0.08 in   Overcast
2:17 AM 46.4 °F 44.6 °F 93% 29.99 in 1.8 mi Calm Calm - N/A   Overcast
2:28 AM 46.4 °F 44.6 °F 93% 29.99 in 2.5 mi Calm Calm - N/A   Overcast
2:53 AM 46.9 °F 46.0 °F 97% 30.00 in 2.5 mi Calm Calm - N/A   Overcast
3:09 AM 46.4 °F 46.4 °F 100% 29.99 in 1.8 mi Calm Calm - N/A   Overcast
3:16 AM 46.4 °F 46.4 °F 100% 29.99 in 2.0 mi Calm Calm - N/A   Overcast
3:53 AM 46.9 °F 46.0 °F 97% 30.00 in 2.5 mi Calm Calm - N/A   Overcast
4:06 AM 46.4 °F 46.4 °F 100% 29.99 in 2.0 mi Calm Calm - N/A   Overcast
4:33 AM 46.4 °F 46.4 °F 100% 29.98 in 3.0 mi Calm Calm - N/A   Overcast
4:46 AM 46.4 °F 46.4 °F 100% 29.98 in 2.5 mi Calm Calm - N/A   Overcast
4:53 AM 46.9 °F 46.0 °F 97% 29.99 in 2.0 mi Calm Calm - N/A   Overcast
5:11 AM 46.4 °F 46.4 °F 100% 29.98 in 3.0 mi Calm Calm - N/A   Overcast
5:25 AM 46.4 °F 46.4 °F 100% 29.98 in 2.0 mi Calm Calm - N/A   Overcast
5:53 AM 46.9 °F 46.0 °F 97% 29.99 in 2.5 mi Calm Calm - N/A   Overcast
6:53 AM 48.0 °F 46.9 °F 96% 30.00 in 2.5 mi Calm Calm - N/A   Overcast
7:53 AM 48.9 °F 48.0 °F 97% 30.00 in 2.5 mi Calm Calm - N/A   Overcast
8:06 AM 48.2 °F 48.2 °F 100% 29.99 in 1.5 mi Calm Calm - 0.00 in Rain Light Rain
8:17 AM 48.2 °F 48.2 °F 100% 29.99 in 0.5 mi Calm Calm - 0.01 in Fog , Rain Light Rain
8:53 AM 50.0 °F 48.9 °F 96% 30.00 in 0.2 mi Calm Calm - 0.01 in Fog , Rain Light Rain
9:13 AM 50.0 °F 48.2 °F 94% 30.00 in 0.5 mi Calm Calm - 0.01 in Fog , Rain Light Rain
9:24 AM 50.0 °F 48.2 °F 94% 30.00 in 0.8 mi Calm Calm - 0.02 in Rain Light Rain
9:31 AM 50.0 °F 48.2 °F 94% 30.00 in 1.2 mi Calm Calm - 0.02 in Rain Light Rain
9:38 AM 50.0 °F 48.2 °F 94% 30.00 in 1.8 mi North 4.6 mph - 0.02 in Rain Light Rain
9:50 AM 48.2 °F 48.2 °F 100% 30.00 in 2.0 mi NNE 4.6 mph - 0.02 in Rain Light Rain
9:53 AM 48.9 °F 48.0 °F 97% 30.00 in 2.0 mi NE 4.6 mph - 0.03 in Rain Light Rain
10:20 AM 50.0 °F 48.2 °F 94% 30.00 in 3.0 mi Calm Calm - 0.00 in Rain Light Rain
10:53 AM 51.1 °F 50.0 °F 96% 30.00 in 4.0 mi Calm Calm - 0.02 in Rain Light Rain
11:23 AM 51.8 °F 50.0 °F 94% 29.98 in 4.0 mi East 4.6 mph - 0.01 in Rain Light Rain
11:53 AM 52.0 °F 50.0 °F 93% 29.98 in 5.0 mi East 3.5 mph - 0.02 in Rain Light Rain
12:53 PM 51.1 °F 48.9 °F 92% 29.95 in 5.0 mi East 3.5 mph - 0.05 in Rain Light Rain
1:30 PM 51.8 °F 48.2 °F 88% 29.92 in 6.0 mi ENE 3.5 mph - 0.01 in Rain Light Rain
1:53 PM 51.1 °F 48.9 °F 92% 29.92 in 9.0 mi ENE 3.5 mph - 0.02 in Rain Light Rain
2:53 PM 52.0 °F 50.0 °F 93% 29.90 in 5.0 mi East 4.6 mph - 0.00 in Rain Light Rain
3:12 PM 51.8 °F 50.0 °F 94% 29.89 in 2.0 mi East 3.5 mph - 0.05 in Rain Rain
3:26 PM 51.8 °F 51.8 °F 100% 29.89 in 3.0 mi Calm Calm - 0.08 in Rain Rain
3:40 PM 51.8 °F 51.8 °F 100% 29.88 in 2.5 mi Calm Calm - 0.09 in Rain Light Rain
3:49 PM 51.8 °F 51.8 °F 100% 29.89 in 4.0 mi Calm Calm - 0.10 in Rain Light Rain
3:53 PM 52.0 °F 51.1 °F 97% 29.90 in 3.0 mi Calm Calm - 0.11 in Rain Rain
4:00 PM 51.8 °F 50.0 °F 94% 29.89 in 2.0 mi Calm Calm - 0.01 in Rain Rain
4:50 PM 51.8 °F 51.8 °F 100% 29.88 in 3.0 mi Calm Calm - 0.07 in Rain Light Rain
4:53 PM 52.0 °F 51.1 °F 97% 29.88 in 3.0 mi Calm Calm - 0.07 in   Overcast
5:11 PM 51.8 °F 51.8 °F 100% 29.88 in 3.0 mi Calm Calm - N/A   Overcast
5:27 PM 51.8 °F 51.8 °F 100% 29.88 in 4.0 mi Calm Calm - 0.01 in Rain Rain
5:41 PM 51.8 °F 51.8 °F 100% 29.88 in 2.5 mi SE 3.5 mph - 0.04 in Rain Rain
5:49 PM 51.8 °F 51.8 °F 100% 29.88 in 4.0 mi Calm Calm - 0.05 in Rain Light Rain
5:53 PM 52.0 °F 51.1 °F 97% 29.88 in 4.0 mi Calm Calm - 0.05 in Rain Light Rain
6:09 PM 51.8 °F 51.8 °F 100% 29.88 in 3.0 mi SE 3.5 mph - 0.03 in Rain Rain
6:22 PM 51.8 °F 51.8 °F 100% 29.88 in 5.0 mi Calm Calm - 0.04 in Rain Light Rain
6:34 PM 51.8 °F 51.8 °F 100% 29.87 in 7.0 mi Calm Calm - 0.04 in Rain Light Rain
6:53 PM 52.0 °F 51.1 °F 97% 29.88 in 6.0 mi Calm Calm - 0.04 in   Overcast
7:16 PM 51.8 °F 51.8 °F 100% 29.87 in 5.0 mi Calm Calm - N/A   Overcast
7:30 PM 51.8 °F 51.8 °F 100% 29.87 in 6.0 mi ESE 3.5 mph - N/A   Overcast
7:49 PM 51.8 °F 51.8 °F 100% 29.87 in 6.0 mi Calm Calm - N/A   Overcast
8:24 PM 53.6 °F 51.8 °F 94% 29.87 in 5.0 mi Calm Calm - N/A   Overcast
8:53 PM 53.1 °F 52.0 °F 96% 29.87 in 4.0 mi Calm Calm - 0.00 in   Overcast
9:33 PM 53.6 °F 51.8 °F 94% 29.86 in 4.0 mi Calm Calm - N/A   Overcast
9:53 PM 53.1 °F 52.0 °F 96% 29.86 in 5.0 mi Calm Calm - N/A   Overcast
10:05 PM 53.6 °F 53.6 °F 100% 29.85 in 6.0 mi Calm Calm - N/A   Overcast
10:49 PM 55.4 °F 53.6 °F 94% 29.86 in 3.0 mi WSW 8.1 mph - 0.01 in Rain Light Rain
10:53 PM 55.0 °F 54.0 °F 96% 29.86 in 4.0 mi WSW 6.9 mph - 0.01 in Rain Light Rain
11:53 PM 54.0 °F 53.1 °F 97% 29.86 in 7.0 mi WSW 5.8 mph - 0.01 in   Overcast